Home   Weather   Pasadena   Past weeks

Flag for USA Past Weather in Pasadena, California, USA — Yesterday and Last 2 Weeks

Now
72 °F

Clear.


Feels Like: 73 °F
Forecast: 67 / 92 °F
Wind: 3 mph from East

Location: Bob Hope Airport

Current Time: Aug 31, 2016 at 1:14:34 AM

Latest Report: Aug 31, 2016 at 12:53 AM


Visibility: 10 mi

Pressure: 29.81 "Hg

Humidity: 78%

Dew Point: 65 °F

Location of PasadenaLocation

Past Weather in Pasadena — Graph

°F

Pasadena Temperature Yesterday

Maximum temperature yesterday: 95 °F (at 1:53 PM)
Minimum temperature yesterday: 67 °F (at 5:53 AM)
Average temperature yesterday: 79 °F

High & Low Weather Summary for the Past Weeks

 TemperatureHumidityPressure
High98 °F (Aug 16, 1:53 PM)90% (Aug 27, 1:53 AM)30.01 "Hg (Aug 27, 1:53 AM)
Low61 °F (Aug 27, 12:53 AM)8% (Aug 17, 1:53 PM)29.74 "Hg (Aug 30, 4:53 PM)
Average74 °F56%29.88 "Hg
* Reported Aug 15 11:53 PM — Aug 30 11:53 PM, Pasadena, Weather by CustomWeather, © 2016

Note: Actual official high and low records may vary slightly from our data, if they occured in-between our weather recording intervals... More about our weather records

Advertising

Pasadena Weather History for the Previous 24 Hours

Scroll right to see more
 ConditionsComfort  
Time TempWeatherWind HumidityBarometerVisibility
11:53 PM
Tue, Aug 30
73 °FClear.3 mph74%29.80 "Hg10 mi
10:53 PM73 °FClear.7 mph71%29.80 "Hg10 mi
9:53 PM75 °FClear.9 mph64%29.80 "Hg10 mi
8:53 PM77 °FClear.10 mph64%29.77 "Hg10 mi
7:53 PM78 °FSunny.12 mph60%29.75 "Hg10 mi
6:53 PM83 °FSunny.10 mph53%29.74 "Hg10 mi
5:53 PM87 °FSunny.13 mph46%29.74 "Hg10 mi
4:53 PM91 °FSunny.9 mph38%29.74 "Hg10 mi
3:53 PM91 °FSunny.9 mph38%29.74 "Hg10 mi
2:53 PM93 °FSunny.10 mph34%29.75 "Hg10 mi
1:53 PM95 °FSunny.7 mph31%29.77 "Hg10 mi
12:53 PM93 °FSunny.5 mph31%29.79 "Hg10 mi
11:53 AM89 °FSunny.No wind34%29.82 "Hg10 mi
10:53 AM82 °FSunny.5 mph48%29.84 "Hg10 mi
9:53 AM77 °FSunny.3 mph58%29.85 "Hg10 mi
8:53 AM72 °FSunny.No wind71%29.85 "Hg10 mi
7:53 AM70 °FSunny.3 mph73%29.85 "Hg10 mi
6:53 AM67 °FClear.7 mph81%29.84 "Hg10 mi
5:53 AM67 °FClear.7 mph81%29.83 "Hg10 mi
4:53 AM69 °FClear.5 mph68%29.83 "Hg10 mi
3:53 AM71 °FClear.5 mph59%29.82 "Hg10 mi
2:53 AM71 °FClear.5 mph59%29.83 "Hg10 mi
1:53 AM72 °FClear.No wind61%29.83 "Hg10 mi
Weather by CustomWeather, © 2016

See weather overviewHow to use our weather pages